AQI (28)

Current Conditions for Foresthill, CA. Partly Cloudy, Dry   
Visibility: 10 miles
Cloud ht: 1,300 ft
Space WX Alerts: ALERT:  Geomagnetic K-index of 4 ( Latest Alert ) - Issue Time: 2020 Jan 09 0904 UTC

  Summary / Temperature 

Current Temperature
47.6°F
8.7°C
(24/hr Ago)
52.1°F
(Apparent temp)
43.8°F
Cool
Wind Chill Graphs
44.2°F 

47.6°F/ 8.7°C
 --- Virtual Temp: 49.1°F ---

 Temp Rate:

 24/hr Difference:

 Avg Running Temp:

 Todays High:

 Todays Low:

 Y-days High:

 Y-days Low:

 Todays WChill:

 Y-days WChill:

 Evapotranspiration:

+2.2°F/hr 

-4.5°F

45.6°F

47.5°F 11:56am

39.6°F 5:54am

54.7°F 1:15pm

40.5°F 1:58am

30.3°F 5:45am

33.2°F 1:32am

0.012 in

115' Above Ground

 Temperature:

 6'AGL VRS 115'AGL:

 Avg Running Temp:

 Humidity:

 Todays High:

 Todays Low:

 Y-days High:

 Y-days Low:

49.0°F 

+1.4°F

49.0°F

0% 

49.0°F 12:00am

49.0°F 12:00am

54.0°F 12:21pm

48.0°F 12:00am

Temp & Humidity Graphs

  Wind 

Wind Speed

 9.0 mph

Gusting to

 9.0 mph

Wind from SSE

153°  SSE

Gentle breeze

 Avg speed:

 Wind Run:

 Peak Gust:

  3.0 mph 

45.0 miles

  19.0 mph 5:03am

  Almanac  

Moon age: 3 days,14 hours,12 minutes,14%

Waxing Crescent
14%
Illuminated
3 days in cycle

 Moonrise:

 Moonset:

 Sunrise:

 Sunset:

 Solar Noon:

9:34am

9:07pm

7:10am

5:17pm

12:16pm

1min 55s more daylight tomorrow 

  Solar Radiation 

(Current Solar)
  120 W/m2 (22%)
(Todays High)
 397 W/m2@11:53am
Feels like: 49.8°F in the sun

Rain

 Rain Today:

 Rain Rate (/hr):

 Rain last hour:

 Rain Yesterday:

 This Month:

 Season Total:

7 Days Since Last Dry Day

0.00 in

0.000 in

0.00 in

0.01 in

5.25 in

20.35 in

Updated Time

Updated: 1/28/20  11:58am

(Updated  sec ago)

Humidity & Barometer

 Humidity:

 Wetbulb:

 Dew Point:

 Barometer:

76% 

44.2°F 

40.4°F 

30.386 inHg 

 Baro Trend:  Steady 
Northern Calif
Preparedness
Fire 
Level 

    UV Index  

(Current UV)
0.9  Low
(Todays High) @ 11:51am
1.5   Low

National Weather Service Forecast

Today

Today: Chance Rain Showers
Chance Rain Showers
Tonight

Tonight: Slight Chance Rain Showers then Partly Cloudy
Slight Chance Rain Showers
Wednesday

Wednesday: Partly Sunny
Partly Sunny
Wednesday
Night
Wednesday Night: Mostly Cloudy
Mostly Cloudy
Thursday

Thursday: Partly Sunny
Partly Sunny
Thursday
Night
Thursday Night: Partly Cloudy
Partly Cloudy
Hi 50 °F ↓ Lo 36 °F Hi 56 °F ↓ Lo 42 °F Hi 60 °F Lo 44 °F

Foresthill Probe 2 Stats  
Foresthill Probe 2: is located on Thomas Street
at 3000 feet. The main Foresthill Weather site
is located on Melody ln at the 2860 foot elevation

Calm
45.5°F
7.5°C
Temp Rate:
+2.0°F
Calm
Gusting to
2.0 mph
(Humidity)
82%
Wind from ESE
107°  ESE
Updated: 28/01/20 - 12:00:25
 Todays High: 45.5°F 11:59
 Todays Low: 38.4°F 05:45
 Rain Today: 0.00 in
 Season Total: 19.64 in

Foresthill Wx: Monthly,Yearly, Highs and Lows 

Foresthill  
This Weather Data is coming from the main Foresthill
Weather site located on Melody ln at the 2860 foot
elevation
Not Foresthill Probe 2
Weather Data
Month
  High
Month
  Low
Year
High
Year
Low
Temp 60.6°F
1/19/20
30.5°F
1/15/20
60.6°F
1/19/20
30.5°F
1/15/20
Humidity 100%
1/8/20
30%
1/7/20
100%
1/8/20
30%
1/7/20
Heat Index 62.1°F
1/19/20
35.0°F
1/15/20
62.1°F
1/19/20
35.0°F
1/15/20
Wind Chill 60.6°F
1/19/20
17.7°F
1/15/20
60.6°F
1/19/20
17.7°F
1/15/20
Wind Gust 40 mph
1/16/20
0 mph
1/1/20
40 mph
1/16/20
0 mph
1/1/20
Barometer 30.59 in
1/5/20
29.73 in
1/16/20
30.59 in
1/5/20
29.73 in
1/16/20
ET 0.07 in
1/7/20
0.00 in
1/1/20
0.07 in
1/7/20
0.00 in
1/1/20
Dew Point 49.2°F
1/25/20
24.2°F
1/7/20
49.2°F
1/25/20
24.2°F
1/7/20
Visible Satellite Pacific Satellite US Radar Satellite Imagery Sacramento,CA.  (click to enlarge)
NWS Weather Forecast - Summary
Updated: Tuesday, January 28, 2020 - 3:00am PST
NWS Weather Forecast: Today and Tonight (Updated: Tue, 28-Jan-2020 1:47am PST)
Today

Today: Chance Rain Showers
Chance Rain Showers

Hi 50 °F ↓
NWS forecast: A chance of rain showers. Mostly sunny. High near 50, with temperatures falling to around 47 in the afternoon. South wind around 6 mph. Chance of precipitation is 40%. New rainfall amounts less than a tenth of an inch possible.
Tonight

Tonight: Slight Chance Rain Showers then Partly Cloudy
Slight Chance Rain Showers

Lo 36 °F
NWS forecast: A slight chance of rain showers before 10pm. Partly cloudy, with a low around 36. East wind around 7 mph. Chance of precipitation is 20%.
YR.NO 10 Day Weather forecast
Last update: 01/28/2020 @ 05:24
Next update: 01/28/2020 @ 11:30
Provided by: 22
      Temperature Precipitation Pressure Wind  
Today
01/28/2020
11:00 12:00 46°F   30.36 inHg Light air from south-southeast 3 mph
  12:00 18:00 50°F < 0.01 in 30.32 inHg Light breeze from south-southwest 5 mph
  18:00 00:00 43°F < 0.01 in 30.27 inHg Light air from south-southwest 1 mph
    (Click to enlarge)
meteogram

    Forecast for next 9 days

      Temperature Precip Pressure Wind  
Wednesday
01/29/2020
00:00 06:00 39°F   30.28 inHg Light breeze from east-northeast 5 mph
  06:00 12:00 32°F   30.23 inHg Light breeze from east-northeast 7 mph
  12:00 18:00 55°F   30.17 inHg Light breeze from west-northwest 4 mph
  18:00 00:00 45°F   30.15 inHg Light air from north-northeast 2 mph
      Temperature Precip Pressure Wind  
Thursday
01/30/2020
00:00 06:00 36°F   30.16 inHg Light breeze from east-northeast 5 mph
  06:00 12:00 39°F   30.19 inHg Light air from east 1 mph
  12:00 18:00 61°F   30.20 inHg Light breeze from west-northwest 4 mph
  16:00 22:00 59°F   30.18 inHg Light air from west-northwest 3 mph
  22:00 04:00 41°F   30.25 inHg Light breeze from east-northeast 7 mph
      Temperature Precip Pressure Wind  
Friday
01/31/2020
04:00 10:00 36°F   30.27 inHg Light breeze from east-northeast 5 mph
  10:00 16:00 57°F   30.31 inHg Calm from northeast 0 mph
  16:00 22:00 59°F   30.28 inHg Light air from west 2 mph
  22:00 04:00 41°F   30.30 inHg Light breeze from east-northeast 5 mph
      Temperature Precip Pressure Wind  
Saturday
02/01/2020
04:00 10:00 37°F   30.26 inHg Light breeze from east 5 mph
  10:00 16:00 57°F   30.29 inHg Light air from south 2 mph
  16:00 22:00 59°F   30.20 inHg Light air from west-southwest 2 mph
  22:00 04:00 37°F   30.15 inHg Light air from east 2 mph
      Temperature Precip Pressure Wind  
Sunday
02/02/2020
04:00 10:00 34°F   30.04 inHg Light breeze from east 4 mph
  10:00 16:00 50°F 0.05 in 30.02 inHg Light breeze from south-southwest 6 mph
  16:00 22:00 39°F   30.03 inHg Light air from north 2 mph
  22:00 04:00 32°F   30.03 inHg Light air from northeast 3 mph
      Temperature Precip Pressure Wind  
Monday
02/03/2020
04:00 10:00 30°F   29.99 inHg Gentle breeze from east-northeast 10 mph
  10:00 16:00 39°F   30.03 inHg Gentle breeze from northeast 8 mph
  16:00 22:00 43°F   30.01 inHg Light breeze from east-northeast 6 mph
  22:00 04:00 27°F   30.11 inHg Light breeze from north-northeast 5 mph
      Temperature Precip Pressure Wind  
Tuesday
02/04/2020
04:00 10:00 30°F   30.13 inHg Light breeze from east 5 mph
  10:00 16:00 41°F   30.20 inHg Light air from northeast 2 mph
  16:00 22:00 43°F   30.17 inHg Light breeze from west 5 mph
  22:00 04:00 25°F   30.27 inHg Light breeze from east 6 mph
      Temperature Precip Pressure Wind  
Wednesday
02/05/2020
04:00 10:00 25°F   30.32 inHg Light breeze from east-northeast 6 mph
  10:00 16:00 45°F   30.35 inHg Light air from south 2 mph
  16:00 22:00 46°F   30.30 inHg Light breeze from west 4 mph
  22:00 04:00 30°F   30.32 inHg Light breeze from east-northeast 4 mph
      Temperature Precip Pressure Wind  
Thursday
02/06/2020
04:00 10:00 28°F   30.29 inHg Light breeze from east 4 mph

NOAA Local Storm Report
2 MILES WEST-SOUTHWEST OF STONEYFORD   ( More )
DATE
11/20/2019
TIME
9:26 AM
COUNTY
COLUSA
STATE
CA
GEOGRAPHIC
39.37N 122.57W
SOURCE
MESONET
NON-THUNDERSTORM WIND GUST MEASURED AT 47 MPH
the mesonet station sywc1 stonyford, at an elevation of 1263 feet, reported a wind gust of 47 mph.
How Close Are We To this Month's Temperature Record ?
Updated Tuesday, Jan 28, 2020- 12:00:00 PM

Current Temperature: 47.6°F

January's High: Temperature Record 71.3°F - Set on Sat, Jan 24, 2015 - 3:19:00 PM
We are currently 23.7°F Less than this Month's record High

January's Low: Temperature Record 24.7°F - Set on Sun, Jan 13, 2013 - 7:29:00 AM
We are currently 22.9°F More than this Month's record Low

Weather History For Tuesday, January 28, 2020


On this Day - In Weather History ...
Data courtesy of weatherforyou.com
powered by Cumulus v1.9.3 (1059)
Ambient Weather VWS v14.00
Top Website Map Copyright © 2007 - 2020 Foresthillweather.com Never base important decisions on this or any weather information obtained from the Internet